| time (UTC) | temp F | wind direction | speed MPH | gust MPH | rain 1hr in | rain 24hr in | rain mn in | humidity % | barometer mb |
| 20260504190120 | 71 | 284 | 3.0 | 13.0 | 0.00 | 0.00 | 0.00 | 39 | 1006.8 |
| 20260504184504 | 70 | 175 | 3.0 | 15.0 | 0.00 | 0.00 | 0.00 | 36 | 1006.9 |
| 20260504183101 | 70 | 189 | 5.0 | 14.0 | 0.00 | 0.00 | 0.00 | 37 | 1007.1 |
| 20260504181503 | 70 | 132 | 3.0 | 15.0 | 0.00 | 0.00 | 0.00 | 39 | 1007.2 |
| 20260504174502 | 69 | 167 | 5.0 | 17.0 | 0.00 | 0.00 | 0.00 | 37 | 1007.8 |
| 20260504173002 | 69 | 192 | 4.0 | 11.0 | 0.00 | 0.00 | 0.00 | 36 | 1008.1 |
| 20260504171502 | 69 | 196 | 3.0 | 12.0 | 0.00 | 0.00 | 0.00 | 38 | 1008.3 |
| 20260504140112 | 59 | 355 | 2.0 | 6.0 | 0.00 | 0.00 | 0.00 | 56 | 1010.1 |
| 20260504110120 | 39 | 207 | 0.0 | 0.0 | 0.00 | 0.00 | 0.00 | 80 | 1011.3 |
| 20260504081602 | 39 | 208 | 0.0 | 0.0 | 0.00 | 0.00 | 0.00 | 77 | 1011.1 |
| 20260504050107 | 44 | 238 | 0.0 | 0.0 | 0.00 | 0.00 | 0.00 | 65 | 1010.9 |
| 20260504044504 | 45 | 237 | 0.0 | 0.0 | 0.00 | 0.00 | 0.00 | 60 | 1010.8 |
| 20260504043103 | 46 | 237 | 0.0 | 0.0 | 0.00 | 0.00 | 0.00 | 57 | 1010.7 |
| 20260504041502 | 46 | 237 | 0.0 | 0.0 | 0.00 | 0.00 | 0.00 | 57 | 1010.5 |
| 20260504040107 | 47 | 237 | 0.0 | 0.0 | 0.00 | 0.00 | 0.00 | 55 | 1010.4 |
| 20260504034502 | 48 | 237 | 0.0 | 0.0 | 0.00 | 0.00 | 0.00 | 53 | 1010.2 |
| 20260504033116 | 49 | 237 | 0.0 | 2.0 | 0.00 | 0.00 | 0.00 | 52 | 1010.1 |
| 20260504031502 | 49 | 234 | 0.0 | 0.0 | 0.00 | 0.00 | 0.00 | 51 | 1010.2 |
| 20260504024503 | 50 | 240 | 0.0 | 2.0 | 0.00 | 0.00 | 0.00 | 49 | 1010.1 |
| 20260504023102 | 49 | 323 | 0.0 | 3.0 | 0.00 | 0.00 | 0.00 | 50 | 1010.0 |
| 20260504021502 | 50 | 263 | 0.0 | 0.0 | 0.00 | 0.00 | 0.00 | 49 | 1010.1 |
| 20260504020103 | 51 | 263 | 0.0 | 2.0 | 0.00 | 0.00 | 0.00 | 47 | 1010.0 |
| 20260504014604 | 52 | 327 | 0.0 | 2.0 | 0.00 | 0.00 | 0.00 | 46 | 1009.9 |
| 20260504013002 | 52 | 350 | 0.0 | 2.0 | 0.00 | 0.00 | 0.00 | 46 | 1009.8 |
| 20260504011602 | 52 | 335 | 0.0 | 1.0 | 0.00 | 0.00 | 0.00 | 46 | 1009.7 |
| 20260504010002 | 53 | 338 | 0.0 | 0.0 | 0.00 | 0.00 | 0.00 | 44 | 1009.5 |
| 20260504004604 | 54 | 338 | 0.0 | 2.0 | 0.00 | 0.00 | 0.00 | 41 | 1009.4 |
| 20260504003002 | 55 | 344 | 0.0 | 2.0 | 0.00 | 0.00 | 0.00 | 40 | 1009.1 |
| 20260504001615 | 56 | 305 | 0.0 | 4.0 | 0.00 | 0.00 | 0.00 | 39 | 1008.9 |
| 20260504000003 | 57 | 355 | 2.0 | 5.0 | 0.00 | 0.00 | 0.00 | 38 | 1008.8 |
| 20260503234602 | 57 | 348 | 1.0 | 9.0 | 0.00 | 0.00 | 0.00 | 37 | 1008.7 |
| 20260503233002 | 58 | 336 | 1.0 | 4.0 | 0.00 | 0.00 | 0.00 | 36 | 1008.5 |
| 20260503231603 | 59 | 344 | 1.0 | 5.0 | 0.00 | 0.00 | 0.00 | 35 | 1008.5 |
| 20260503230002 | 59 | 321 | 2.0 | 9.0 | 0.00 | 0.00 | 0.00 | 34 | 1008.5 |
| 20260503224604 | 60 | 355 | 4.0 | 11.0 | 0.00 | 0.00 | 0.00 | 33 | 1008.5 |
| 20260503223003 | 60 | 342 | 4.0 | 13.0 | 0.00 | 0.00 | 0.00 | 32 | 1008.4 |
| 20260503221602 | 60 | 348 | 8.0 | 15.0 | 0.00 | 0.00 | 0.00 | 32 | 1008.3 |
| 20260503220004 | 60 | 355 | 4.0 | 12.0 | 0.00 | 0.00 | 0.00 | 32 | 1008.3 |
| 20260503214602 | 60 | 52 | 4.0 | 13.0 | 0.00 | 0.00 | 0.00 | 32 | 1008.3 |
| 20260503213003 | 60 | 335 | 6.0 | 13.0 | 0.00 | 0.00 | 0.00 | 33 | 1008.3 |
| 20260503211611 | 60 | 330 | 9.0 | 17.0 | 0.00 | 0.00 | 0.00 | 30 | 1008.2 |
| 20260503210003 | 60 | 337 | 6.0 | 14.0 | 0.00 | 0.00 | 0.00 | 31 | 1008.2 |
| 20260503204607 | 59 | 324 | 5.0 | 15.0 | 0.00 | 0.00 | 0.00 | 35 | 1008.4 |
| 20260503203002 | 58 | 342 | 7.0 | 13.0 | 0.00 | 0.00 | 0.00 | 35 | 1008.5 |
| 20260503201602 | 58 | 5 | 8.0 | 16.0 | 0.00 | 0.00 | 0.00 | 32 | 1008.5 |
| 20260503200003 | 58 | 360 | 5.0 | 15.0 | 0.00 | 0.00 | 0.00 | 35 | 1008.7 |
| 20260503194604 | 58 | 5 | 5.0 | 17.0 | 0.00 | 0.00 | 0.00 | 35 | 1008.8 |
| 20260503193003 | 58 | 355 | 8.0 | 18.0 | 0.00 | 0.00 | 0.00 | 36 | 1009.0 |
| 20260503191603 | 57 | 5 | 10.0 | 20.0 | 0.00 | 0.00 | 0.00 | 34 | 1009.1 |